Regional Weather Roundup
Issued by NWS

Home | Current Version | Previous Version | Graphics & Text | Print | Product List | Glossary On
Versions: 1 2 3 4 5 6 7 8 9 10 11 12 13 14 15 16 17 18 19 20 21 22 23 24 25 26 27 28 29 30 31 32 33 34 35 36 37 38 39 40 41 42 43 44 45 46 47 48 49 50
000
ASUS45 KTFX 200804
RWRMT
MONTANA HOURLY WEATHER ROUNDUP
NATIONAL WEATHER SERVICE GREAT FALLS MT
204 AM MDT MON OCT 20 2014

NOTE: "FAIR" INDICATES FEW OR NO CLOUDS BELOW 12000 FEET WITH NO
SIGNIFICANT WEATHER AND/OR OBSTRUCTIONS TO VISIBILITY.

* THESE STATIONS ARE NOT UNDER NWS QUALITY CONTROL. THEY DO NOT
   REPORT WEATHER SUCH AS PRECIPITATION OR FOG.

MTZ001>007-043-200900-
WEST OF THE DIVIDE
CITY           SKY/WX    TMP DP  RH WIND       PRES   REMARKS
KALISPELL      CLEAR     32  30  92 CALM      29.87F
MISSOULA       CLEAR     41  36  82 CALM      29.93S
BUTTE          CLEAR     34  27  76 CALM      30.04S
MULLAN PASS    CLEAR     48  32  54 S6        29.94S
* ESSEX        N/A       39  35  86 VRB1       N/A
* LINCOLN      N/A       29  27  92 N/A        N/A
* POLSON       N/A       45  40  83 S1         N/A
* RONAN APT    CLEAR     36  34  92 N/A        N/A
* SEELEY LAKE  N/A       30  28  92 N/A        N/A
* THOMP F APT  CLEAR     48  21  34 NE5        N/A
$$

MTZ008-052>055-200900-
SOUTHWEST MONTANA
CITY           SKY/WX    TMP DP  RH WIND       PRES   REMARKS
BOZEMAN        CLEAR     36  28  73 SE7       30.00F WCI  30
DILLON         CLEAR     48  25  41 S9        30.03S
W YELLOWSTONE  CLEAR     25  19  78 CALM      30.17S
* THREE FORKS  CLEAR     32  32 100 N/A        N/A
* BOULDER HILL N/A       45  25  45 S8         N/A
* MONIDA PASS  N/A       38  20  48 N/A        N/A
* RAYNOLDS PAS N/A       37  18  46 SW5G10     N/A   WCI  33
* WHITEHALL    N/A       36  29  76 NE2G8      N/A
* WISE RIVER   N/A       32  26  79 W2         N/A
$$

MTZ009>010-012-014-046-048-049-054-200900-
EAST SLOPES AND CENTRAL MONTANA
CITY           SKY/WX    TMP DP  RH WIND       PRES   REMARKS
CUT BANK       CLEAR     46  28  50 SE7       29.85F
GREAT FALLS    CLEAR     57  28  33 S14       29.88S
HELENA         CLEAR     43  36  76 CALM      29.95S
MALMSTROM AFB  CLEAR     46  30  54 S3        29.89F
* CONRAD       CLEAR     41  30  65 N/A        N/A
* DEARBORN     N/A       41  35  79 SE1        N/A
* EAST GLACIER N/A       54  30  40 W16        N/A
* MONARCH      N/A       49  24  38 S12        N/A
* PENDROY      N/A       49  29  46 SW9        N/A
* ROGERS PASS  N/A       49  30  48 NW9G14     N/A
* SAINT MARY   N/A       58  28  32 S5G12      N/A
* SWEET GRASS  N/A       48  30  50 S14        N/A
$$

MTZ011-013-016-021-035-040-045-047-050-051-200900-
NORTH CENTRAL MONTANA
CITY           SKY/WX    TMP DP  RH WIND       PRES   REMARKS
HAVRE          CLEAR     37  36  96 W5        29.84S WCI  33
LEWISTOWN      CLEAR     43  30  60 SE8       29.94F
* CHINOOK      CLEAR     45  39  80 E5        29.84S
* FORT BENTON  CLEAR     45  36  71 CALM      29.88S
* CHESTER      N/A       36  30  79 NE2        N/A
* DENTON       N/A       45  32  60 N/A        N/A
* GEYSER       N/A       45  28  51 NE4        N/A
* JUDITH GAP   N/A       43  33  68 S6         N/A
* LOMA         N/A       47  39  74 NE4        N/A
$$

MTZ017>020-022>027-061-062-200900-
NORTHEAST MONTANA
CITY           SKY/WX    TMP DP  RH WIND       PRES   REMARKS
GLASGOW        CLEAR     45  37  74 E16       29.91F
GLENDIVE       CLEAR     43  34  71 SW7       30.00S
JORDAN         CLEAR     48  36  63 CALM      29.92F
SIDNEY         CLEAR     37  34  89 CALM      30.01S
WOLF POINT     CLEAR     39  34  82 NE5       29.95S WCI  35
* BEAVER HILL  N/A       51  36  57 SE18       N/A
* CIRCLE       N/A       50  38  64 N/A        N/A
* LINDSAY DVD  N/A       47  34  61 SE4        N/A
* NAVAJO       N/A       46  37  71 SW9        N/A
$$

MTZ028>042-056>058-200900-
SOUTHCENTRAL AND SOUTHEAST MONTANA
CITY           SKY/WX    TMP DP  RH WIND       PRES   REMARKS
BAKER          CLEAR     43  34  71 E9        30.02F
BILLINGS       CLEAR     48  32  54 SW13      29.95F
LIVINGSTON     CLEAR     37  28  70 NW7       30.00F WCI  32
MILES CITY     CLEAR     54  37  53 SE14      29.97S
* LAUREL APT   CLEAR     45  30  56 N/A        N/A
* ROUNDUP APT  CLEAR     45  30  56 SW7        N/A
* ALZADA       N/A       48  38  68 E2         N/A
* HYSHAM       N/A       63  30  29 S6G11      N/A
* LAME DEER    N/A       56  35  45 S12G17     N/A
* REED POINT   N/A       35  33  92 E1         N/A
* ROSCOE HILL  N/A       53  12  19 SW2G7      N/A
$$

REGIONAL REPORTS...DAKOTAS
CITY           SKY/WX    TMP DP  RH WIND       PRES   REMARKS
WILLISTON      CLEAR     39  34  82 SW5       29.99S WCI  35
DICKINSON      PTCLDY    41  36  82 S10       30.02S
BEACH          N/A       43  37  79 S7        30.02F
CROSBY         CLEAR     43  39  86 S10       29.98S
TIOGA          CLEAR     32  32 100 E3        30.03S
BISMARCK       MOCLDY    36  34  92 CALM      30.05R
GRAND FORKS    CLEAR     37  36  96 W6        29.97R WCI  32
FARGO          CLEAR     41  36  82 W5        29.97R
BUFFALO SD     CLEAR     46  34  63 S9        29.99S
RAPID CITY     CLEAR     39  36  89 W3        30.08F
$$

REGIONAL REPORTS...WYOMING/IDAHO/WASHINGTON
CITY           SKY/WX    TMP DP  RH WIND       PRES   REMARKS
GILLETTE       CLEAR     52  36  55 S17       30.05F
SHERIDAN       CLEAR     37  30  76 CALM      30.00S
CODY           CLEAR    N/A N/A N/A CALM      30.04F
YELLOWSTONE LA PTCLDY    27  21  78 CALM      30.24S
MULLAN PASS    CLEAR     48  32  54 S6        29.94S
SAND POINT     FOG       37  37 100 CALM      29.81F VSB M1/4
SPOKANE        CLEAR     52  46  80 E5        29.76F

$$




USA.gov is the U.S. government's official web portal to all federal, state and local government web resources and services.